Aguas Formosas, Brazil
Current Conditions -  °F | °C
As of 6:00 AM on Friday 31 Oct 2014 (Local Time) from SBPS Reporting Station
Few Clouds Few Clouds  
Wind Chill: 75°   Ceiling: Unl
Heat Index: 75°   Visibility: 6mi
Dew Point: 72°   Wind: 6mph
Humidity: 89%   Direction: 60°ENE
Pressure: 30"   Gusts: NA
Location:  17.08°S, 40.94°W
Report Text: SBPS 310800Z 06005KT 9999 FEW015 24/22 Q1016
Loading
Personal Weather Stations






























Interactive Weather Map
Tropical Storm Tracking
New forecast layout! Learn more

10-Day Weather Forecast

Advertisements
Track Severe Weather on mobile